SCP
0 0 0 0 0 0 0 0 0 0 0 0 0 1 1 1 2 2 2 1 1 1 2 2 3 3 2 2 2 2 2 2 2 2 2 2 1 1 1 1 1 0 0 0
0 0 0 0 0 0 0 0 0 0 0 0 0 1 1 1 1 1 1 1 1 2 2 3 3 3 3 2 2 2 2 2 2 2 2 2 1 1 1 1 1 0 0 0
0 0 0 0 0 0 0 0 0 0 0 0 0 0 1 1 1 1 1 1 1 2 2 3 3 4 3 2 2 2 3 2 2 3 3 3 2 2 1 1 1 0 0 0
0 0 0 0 0 0 0 0 0 0 0 0 0 0 0 0 1 1 1 1 1 2 2 2 3 3 3 3 2 3 3 2 2 3 4 4 3 2 1 1 1 1 1 1
0 0 0 0 0 0 0 0 0 0 0 0 0 0 0 0 0 1 1 1 1 2 2 2 2 3 3 3 2 2 2 2 2 2 3 3 2 1 1 1 1 1 1 1
0 0 0 0 0 0 0 0 0 0 0 0 0 0 0 0 0 1 1 2 2 2 2 2 2 3 3 3 2 2 2 1 1 2 2 2 2 1 1 1 1 1 1 1
0 0 0 0 0 0 0 0 0 0 0 0 0 0 0 0 0 1 2 2 2 2 2 2 2 2 2 3 2 2 2 1 2 2 2 2 2 1 1 1 1 1 1 1
0 0 0 0 0 0 0 0 0 0 0 0 0 0 0 0 0 1 1 2 2 3 3 2 2 2 2 2 2 2 2 2 2 3 3 3 2 2 1 1 1 0 0 1
0 0 0 0 0 0 0 0 0 0 0 0 0 0 1 0 1 1 1 2 3 3 3 2 2 2 2 2 2 2 2 2 2 3 3 3 3 2 2 1 1 0 0 1
0 0 0 0 0 0 0 0 0 0 0 0 0 0 1 1 1 1 1 2 3 4 3 2 2 2 2 2 2 1 1 2 2 3 3 3 3 2 2 1 1 0 0 1
0 0 0 0 0 0 0 0 0 0 0 0 0 0 1 1 1 1 1 2 3 4 3 2 2 2 2 2 2 1 1 1 2 2 3 3 3 2 1 1 1 0 0 0
0 0 0 0 0 0 0 0 0 0 0 0 0 0 1 1 1 1 1 2 3 3 2 2 2 2 2 2 2 1 1 1 2 2 2 2 2 1 1 1 1 1 0 0
0 0 0 0 0 0 0 0 0 0 0 0 0 1 1 1 1 2 2 2 2 2 2 1 1 2 2 2 2 1 1 1 2 2 2 2 1 1 1 1 1 1 1 1
0 0 0 0 0 0 0 0 0 0 0 0 0 1 2 1 1 2 2 1 2 1 1 1 1 1 2 2 1 1 1 1 1 1 1 2 2 2 1 1 1 1 1 1
0 0 0 0 0 0 0 0 0 0 0 0 1 1 1 1 1 2 1 1 1 1 1 1 1 1 1 1 1 1 1 1 1 1 1 1 2 2 1 1 1 1 1 1
0 0 0 0 0 0 0 0 0 0 0 0 1 1 1 1 1 1 1 1 1 1 1 1 1 1 1 1 1 1 1 1 1 1 1 1 1 1 1 1 1 1 1 1
0 0 0 0 0 0 0 0 0 0 0 1 1 1 1 1 1 1 1 2 2 1 1 1 1 1 1 1 1 1 1 1 1 1 1 1 1 1 1 1 1 1 1 1
0 0 0 0 0 0 0 0 0 0 1 1 1 1 1 1 1 1 2 2 2 2 1 1 1 1 1 1 1 1 1 1 1 1 1 1 1 1 0 0 0 0 1 1
0 0 0 0 0 0 0 0 0 0 1 1 1 2 2 1 1 1 1 1 1 1 1 1 1 1 1 1 1 1 1 1 1 1 1 1 1 0 0 0 0 0 0 0
0 0 0 0 0 0 0 0 0 0 1 1 2 2 2 1 1 1 1 1 1 1 1 1 1 1 0 0 1 1 1 1 1 1 1 1 1 0 1 1 1 1 1 1
0 0 0 0 0 0 0 0 0 0 0 1 1 1 1 1 1 1 1 1 0 1 1 1 1 1 0 0 0 0 0 1 1 1 1 1 1 1 1 1 1 1 1 1
0 0 0 0 0 0 0 0 0 0 0 1 1 1 1 0 1 1 0 0 0 0 1 1 1 1 0 0 0 0 0 1 1 1 1 1 1 1 1 2 2 2 1 1
0 0 0 0 0 0 0 0 0 0 0 0 1 0 0 0 0 0 0 0 0 0 0 1 1 1 0 0 0 0 0 1 1 1 1 1 1 1 1 1 2 1 1 1
0 0 0 0 0 0 0 0 0 0 0 0 0 0 0 0 0 0 0 0 0 0 0 0 1 1 0 0 0 0 0 1 1 1 0 0 0 1 1 1 1 1 1 1
0 0 0 0 0 0 0 0 0 0 0 0 0 0 0 0 0 0 0 0 0 0 0 0 1 1 1 0 0 0 0 0 0 0 0 0 1 1 0 0 0 0 0 0
0 0 0 0 0 0 0 0 0 0 0 0 0 0 0 0 0 0 0 0 0 0 0 0 0 1 1 0 0 0 0 0 0 0 0 0 1 1 1 0 0 0 0 0
Wind_Speed
4 4 4 7 7 5 3 2 5 7 4 1 2 3 3 2 4 5 5 5 6 6 5 6 8 9 9 9 10 11 10 9 8 6 6 6 6 5 4 5 6 7 6 7
4 4 8 5 4 3 3 3 5 6 2 0 1 2 2 3 5 6 6 7 6 4 3 6 8 9 10 10 10 10 11 11 10 8 6 5 5 4 4 4 5 7 7 7
7 6 4 5 4 4 4 5 5 4 4 4 2 4 3 2 2 2 3 3 4 6 6 6 8 9 9 10 11 10 11 11 11 9 6 4 3 3 3 3 4 5 7 7
5 6 3 4 5 6 5 6 6 3 0 3 1 2 5 3 4 4 4 3 3 4 5 6 7 8 8 9 8 8 9 9 10 10 9 9 7 6 5 4 4 5 6 7
6 5 5 6 7 8 7 2 2 1 3 0 2 1 7 3 5 6 4 3 3 4 6 6 7 7 6 6 7 7 7 8 8 9 11 10 7 5 4 4 6 6 5 6
6 4 5 7 5 7 4 5 6 6 5 0 2 2 6 5 6 4 3 2 2 3 5 5 5 5 5 5 5 6 7 7 8 9 9 9 9 7 7 6 6 5 4 4
3 4 4 4 2 1 4 6 4 4 4 4 2 2 9 7 5 4 3 2 2 3 4 5 5 5 5 6 6 6 7 7 9 9 9 9 9 9 9 8 7 6 4 4
4 5 5 6 8 6 6 10 9 5 5 4 2 4 8 4 2 0 1 3 3 3 4 5 5 5 6 6 6 6 7 7 8 9 9 8 8 6 6 7 6 7 6 5
7 6 4 4 5 10 7 5 7 8 3 1 4 6 8 1 2 2 3 3 2 3 4 4 4 4 5 5 5 6 6 6 6 7 7 7 8 7 7 6 6 5 4 5
9 3 4 2 4 3 6 9 7 7 7 2 3 4 5 4 2 0 2 3 2 2 4 4 4 4 4 4 4 4 5 5 5 5 6 6 7 7 7 6 7 6 6 5
7 5 3 3 2 4 4 5 6 5 6 7 3 7 5 5 4 4 3 3 3 3 3 3 3 3 3 3 3 3 4 5 4 5 5 6 6 7 7 7 7 6 6 6
6 6 1 3 3 2 4 6 8 7 4 4 5 7 4 3 3 4 3 3 3 3 3 3 3 3 3 3 3 3 4 4 4 5 5 6 6 6 7 6 6 6 6 6
8 8 4 4 4 2 3 3 4 7 7 5 5 6 2 2 2 2 3 4 4 4 4 4 3 3 3 3 3 3 4 4 3 3 4 4 5 6 6 6 6 6 6 6
8 6 8 10 8 5 3 3 4 6 5 5 6 5 2 1 1 1 2 2 4 4 4 4 3 2 2 2 3 3 3 3 4 4 4 4 4 5 5 5 5 5 6 6
6 5 3 2 3 4 4 4 5 4 7 8 6 5 4 2 2 2 2 2 3 3 3 3 2 2 2 3 3 3 3 3 4 5 5 4 4 4 5 4 4 4 4 5
5 6 4 3 3 4 4 2 3 3 3 3 3 2 2 0 2 2 2 3 3 2 2 2 2 2 2 2 2 3 3 3 4 5 5 4 5 5 5 5 4 4 4 3
3 6 5 2 0 4 2 1 2 2 1 3 5 4 2 2 2 2 2 2 2 2 2 2 1 1 2 2 2 3 3 4 4 4 5 5 5 5 4 5 5 5 4 4
6 6 5 4 3 3 3 1 3 5 3 2 2 2 2 3 2 2 2 2 2 2 2 2 2 2 1 2 2 3 4 4 4 4 4 5 5 5 5 5 5 5 5 5
4 8 5 4 4 1 2 0 1 3 1 1 3 3 3 3 4 4 4 3 2 2 2 2 2 2 2 2 3 4 4 4 4 4 4 4 5 6 6 6 5 5 6 6
6 6 7 5 5 6 5 1 1 3 0 0 2 3 3 2 2 1 2 4 3 3 3 4 4 4 3 2 3 5 4 4 4 4 4 5 5 6 6 6 5 5 6 6
4 5 5 4 3 4 2 3 1 4 5 1 2 3 2 2 2 2 3 3 4 3 4 5 5 4 3 2 4 5 4 3 3 4 5 5 6 6 6 6 6 6 7 8
4 4 4 4 3 5 1 1 3 4 0 1 1 1 2 3 4 4 4 4 4 5 5 5 6 5 4 3 5 6 4 3 4 5 6 6 6 6 6 7 7 7 7 8
2 3 4 5 5 2 1 0 1 1 1 1 1 2 4 5 4 4 4 4 5 6 5 5 7 7 6 5 5 6 3 4 6 7 6 6 7 7 6 7 7 7 6 6
0 2 3 2 1 0 1 1 2 1 0 1 1 3 4 5 5 5 5 5 5 6 6 6 8 8 7 7 7 6 5 6 8 8 7 7 9 9 9 7 6 6 5 6
2 3 3 1 1 1 1 2 2 2 2 3 3 3 5 7 6 6 6 6 6 6 6 7 8 8 8 8 8 7 6 7 10 9 9 9 9 10 10 10 8 8 6 5
2 4 5 4 5 4 2 1 1 2 3 4 5 5 5 7 8 8 7 6 7 7 7 8 9 9 9 9 9 7 6 7 10 9 8 7 7 8 9 10 11 17 14 16
Wind_Direction
132 107 183 200 187 185 186 241 276 270 281 297 261 269 274 205 193 197 196 201 207 213 183 161 164 166 165 171 176 178 176 175 170 169 176 177 181 181 184 184 179 176 176 175
80 228 216 192 175 176 202 268 283 296 336 141 297 305 282 202 213 209 206 208 208 197 168 166 164 169 172 174 176 181 179 178 177 180 180 172 164 173 181 177 174 177 177 177
176 221 183 169 187 197 228 218 243 267 340 16 46 337 311 274 274 256 234 220 201 189 181 176 173 176 172 176 181 187 185 180 179 173 159 146 129 123 152 168 175 183 181 180
211 235 191 192 209 180 251 229 219 233 80 305 28 279 289 295 297 264 247 234 210 193 173 172 172 173 177 180 181 187 184 182 179 172 170 169 173 177 182 178 176 178 183 180
220 203 187 209 217 179 218 198 176 185 155 61 6 144 285 321 279 266 250 229 204 181 171 174 174 174 171 167 173 181 177 179 178 178 178 178 179 177 164 163 170 178 182 180
219 215 195 205 210 190 183 74 56 50 77 114 255 162 273 252 240 265 245 211 189 173 161 158 150 148 151 153 166 171 174 179 175 179 181 181 179 170 163 169 174 178 177 177
263 252 229 191 203 189 126 97 38 8 23 249 268 200 251 258 252 241 228 195 177 153 147 148 147 152 159 166 173 174 176 186 184 183 187 187 183 177 179 178 179 177 177 184
194 266 231 193 185 183 169 143 156 184 209 265 316 238 258 279 296 329 146 154 139 141 150 155 159 164 169 173 175 177 180 185 185 188 190 186 183 182 186 184 180 185 189 190
179 244 271 222 186 150 141 171 157 128 137 90 288 288 302 342 25 46 100 114 128 156 156 154 156 164 165 168 178 181 182 185 185 188 189 187 185 185 186 182 180 184 185 184
157 211 291 303 88 65 142 142 108 121 140 192 290 282 262 284 278 171 136 141 142 148 148 155 163 166 159 160 167 171 174 181 185 182 187 189 190 187 184 179 184 186 186 180
143 160 311 21 109 170 113 102 107 108 142 149 204 265 238 233 216 188 182 168 166 160 153 146 145 134 127 132 145 156 164 166 174 183 187 185 188 185 181 184 187 186 181 172
148 127 195 278 282 197 144 150 142 142 174 156 163 256 291 247 198 169 167 148 142 137 136 127 121 114 115 120 129 142 151 161 173 181 188 188 182 175 176 181 182 179 178 174
137 122 107 348 340 17 85 109 122 117 113 140 159 256 319 40 88 132 138 133 131 135 131 120 113 119 127 134 141 142 150 158 155 158 161 164 170 169 174 176 175 172 170 169
116 115 155 185 205 180 136 125 136 116 131 170 205 233 293 18 163 169 147 144 135 136 133 125 126 123 123 124 127 131 137 140 137 134 133 144 157 159 159 160 161 164 164 166
101 113 134 153 151 135 134 149 153 145 165 169 206 207 245 241 214 199 167 140 123 123 125 132 141 127 121 121 126 129 130 135 132 127 128 135 131 127 127 131 137 145 154 164
78 114 103 64 71 107 92 74 132 129 141 154 147 214 252 190 114 124 140 144 143 136 138 136 127 121 127 135 136 126 125 131 122 122 121 116 118 120 123 126 126 125 127 130
81 111 106 135 288 81 64 306 159 127 95 151 175 204 159 119 111 139 145 145 134 128 127 131 122 113 122 134 135 133 134 124 121 123 120 122 122 120 121 126 120 122 121 110
118 98 105 117 105 160 239 334 114 111 71 57 111 114 121 116 83 54 81 117 104 86 109 115 107 90 81 93 108 114 114 116 122 123 123 124 127 128 123 115 115 111 101 101
115 122 110 113 122 145 246 25 97 113 47 34 121 116 108 109 71 32 30 54 78 84 103 104 95 88 84 92 105 110 110 115 118 124 124 124 127 125 121 115 108 103 100 91
51 84 107 116 135 204 218 223 322 105 286 269 136 153 156 125 110 236 33 51 52 57 87 86 80 79 82 77 98 108 114 117 129 138 135 129 127 125 125 123 113 101 99 97
54 56 97 129 157 237 252 297 61 161 220 195 162 173 169 169 176 143 80 57 58 65 76 84 79 71 63 77 104 105 102 111 120 114 112 111 114 117 116 109 103 103 101 95
144 130 142 131 155 229 313 66 165 205 278 112 145 143 125 120 111 101 89 74 69 71 68 78 83 69 54 71 101 100 96 94 91 91 93 98 101 105 105 105 100 98 100 96
132 167 167 168 186 205 5 139 294 190 190 261 170 148 130 119 120 112 98 87 77 76 70 73 85 75 59 59 81 91 79 87 93 90 89 90 90 87 90 100 103 98 95 97
111 107 113 112 157 122 45 40 5 12 308 272 166 146 132 132 133 119 108 94 81 78 77 75 80 77 64 58 65 73 76 84 90 90 86 89 91 86 78 76 80 89 95 103
177 127 109 116 175 93 32 34 8 21 62 91 96 110 127 127 121 113 104 97 91 83 77 75 79 79 68 66 64 61 71 89 91 88 88 86 87 90 83 74 63 72 61 83
195 165 165 197 193 166 187 58 44 74 85 101 102 93 98 114 113 106 100 96 94 88 82 78 75 75 70 67 63 57 64 88 97 93 89 91 94 94 95 95 79 60 70 71